Location: S�tio Afonso Gruber
(26.1760°S, 49.5250°W)
Time: 07:33:18
(UTC+00:00)

ISS - Visible Passes

Search period start: 07 December 2021 00:00
Search period end: 17 December 2021 00:00
Orbit: 417 x 422 km, 51.6° (Epoch: 07 December)

Date Brightness Start Highest point End Pass type
(mag) Time Alt. Az. Time Alt. Az. Time Alt. Az.
11 Dec -0.6 07:50:32 10° S 07:52:54 17° SE 07:55:15 10° E visible
11 Dec -2.5 22:51:13 10° N 22:53:50 21° NE 22:56:30 10° ESE visible
12 Dec -1.1 00:27:53 10° W 00:30:32 21° SW 00:33:14 10° S visible
12 Dec 0.1 07:04:50 10° SSE 07:05:19 10° SE 07:05:47 10° SE visible
12 Dec -2.3 23:39:51 10° WNW 23:43:03 39° SW 23:46:17 10° SSE visible
13 Dec -3.2 07:51:36 10° SW 07:54:59 64° SE 07:58:20 10° NE visible
13 Dec -3.7 22:52:14 10° NW 22:55:37 83° SW 22:59:02 10° SE visible
14 Dec -1.7 07:04:27 10° SSW 07:07:32 31° SE 07:10:35 10° ENE visible
14 Dec -0.2 23:43:43 10° WSW 23:45:13 12° SW 23:46:43 10° SSW visible
15 Dec -0.7 06:17:37 10° S 06:20:00 18° SE 06:22:22 10° E visible
15 Dec -0.7 22:54:58 10° W 22:57:37 21° SW 23:00:18 10° S visible
16 Dec -0.1 05:31:48 10° SSE 05:32:24 10° SE 05:32:59 10° SE visible
16 Dec -3.8 07:06:05 10° SW 07:09:26 57° NW 07:12:44 10° NNE visible
